Showing default

COSMOS 2147, 21303

Orbit data source: Space-Track

COSMOS 2147, 21303 is a payload satellite owned by UNKS RF (CIS) in LEO that was launched on Thu, 16 May 1991 UTC via a TSIKLON-3 launch vehicle from the Plesetsk Missile And Space Complex (PKMTR). Payload-class satellites include a variety of spacecraft equipped with specific instruments for various scientific and technological missions. These include communications satellites like Starlink; space stations such as the ISS; scientific satellites like the Hubble; Earth observation satellites from companies like Planet Labs, Umbra, and HawkEye 360; GPS; miniature CubeSats for education and research; and military/defense satellites.

Loading next visibility...
Identifier
21303, 1991-033E
Orbit
LEO
Country
Flag of CISCIS
Related business
Manufacturer
NPO PM
Mission
Defense Communications
Bus & Motor
STRELA-3, Unknown motor
Mass
225 kg wet, 225 kg dry
Launch date (UTC)
1991-05-16 (35 years ago)
Launch vehicle
TSIKLON-3
Launch site
Plesetsk Missile And Space Complex (PKMTR)
Object type
Payload
Rocket body
Debris
Shape & HBR
Cyl, 0.8 m
Radar Cross Section
1.257 m², Large (>1 m²)

Expand to show TLE details & history
Last TLE update: 2 days ago

TLE from 2 days ago
0 COSMOS 2147
1 21303U 91033E   26171.32857149  .00000030  00000-0  10259-3 0  9994
2 21303  82.5667 273.2093 0018612 358.8151  56.2310 12.65166124620548
Epoch: 2026-06-20T07:53Z
TLE epoch observation values (Epoch: 2026-06-20T07:53:08.576Z)
Latitude
54.62824°
Longitude
-103.08426°
Altitude
1,402.62 km
Speed
7.168 km/s
True Right ascension
18h 54m 59s
True Declination
54° 28' 45"
Sunlit
Object was in daylight at epoch
Visualization orbit readout
Latitude
Unknown
Longitude
Unknown
Altitude
Unknown
Speed
Unknown
Apparent Right ascension
Unknown
Apparent Declination
Unknown
Sunlit
N/A
Visualization observer readout
Local Sidereal Time
00:51:05
Azimuth
Unknown
Elevation
Unknown
Doppler factor
Unknown
Orbital elements
Apogee altitude
1,413.485 km
Perigee altitude
1,384.536 km
Semi-major axis
7,777.148 km
Eccentricity
0.00186
Inclination
82.5667°
RAAN
273.2093°
Arg. of periapsis
358.8151°
True anomaly
56.40852°
Mean anomaly
56.231°
Eccentric anomaly
56.31974°
Mean motion
3.16456 °/min
Orbital period
113.76 mins
BSTAR
0.00010259
Loading maneuver chart data...
Computing Atmospheric mass density...
Loading historical data...
Loading historical data...
Loading historical data...
Loading historical data...
Loading historical data...
Loading historical data...
Loading historical data...

Documentation

Showing up to 5 results
|